Location: Nelson
(47.1935°N, 121.0537°W)
Time: 12:20:17
(UTC+00:00)

ISS - Visible Passes

Search period start: 01 December 2022 00:00
Search period end: 11 December 2022 00:00
Orbit: 414 x 421 km, 51.6° (Epoch: 01 December)

Date Brightness Start Highest point End Pass type
(mag) Time Alt. Az. Time Alt. Az. Time Alt. Az.
01 Dec -3.1 01:21:37 10° WNW 01:24:48 39° N 01:26:48 19° ENE visible
01 Dec -1.3 02:58:25 10° WNW 02:59:44 22° WNW 02:59:44 22° WNW visible
02 Dec -3.9 02:10:18 10° WNW 02:13:39 76° NNE 02:13:44 75° NE visible
03 Dec -3.6 01:22:06 10° WNW 01:25:25 56° NNE 01:27:46 17° E visible
03 Dec -1.3 02:59:00 10° WNW 03:00:42 23° W 03:00:42 23° W visible
04 Dec -3.1 02:10:35 10° WNW 02:13:52 52° SSW 02:14:47 38° SSE visible
05 Dec -3.7 01:22:10 10° WNW 01:25:32 80° SSW 01:28:51 10° ESE visible
05 Dec -0.9 02:59:51 10° W 03:01:49 15° SW 03:01:58 15° SW visible
06 Dec -1.4 02:10:49 10° W 02:13:32 23° SW 02:16:14 10° SSE visible
07 Dec -2.1 01:22:01 10° WNW 01:25:07 35° SW 01:28:12 10° SSE visible
09 Dec -0.6 01:22:02 10° W 01:24:09 16° SW 01:26:16 10° S visible
